Time,TemperatureF,DewpointF,PressureIn,WindDirection,WindDirectionDegrees,WindSpeedMPH,WindSpeedGustMPH,Humidity,HourlyPrecipIn,Conditions,Clouds,dailyrainin,SoftwareType,DateUTC
2013-01-14 00:04:00,63.0,-99.9,-100.00,South,190,8.0,11.0,-999,-99.99,,,-99.99,,2013-01-14 05:04:00,
2013-01-14 00:12:00,63.0,-99.9,-100.00,South,185,8.0,11.0,-999,-99.99,,,-99.99,,2013-01-14 05:12:00,
2013-01-14 00:22:00,63.0,-99.9,-100.00,SSW,195,7.0,11.0,-999,-99.99,,,-99.99,,2013-01-14 05:22:00,
2013-01-14 00:33:00,63.0,-99.9,-100.00,South,185,8.0,11.0,-999,-99.99,,,-99.99,,2013-01-14 05:33:00,
2013-01-14 00:43:00,63.0,-99.9,-100.00,South,175,9.0,13.0,-999,-99.99,,,-99.99,,2013-01-14 05:43:00,
2013-01-14 00:53:00,63.0,-99.9,-100.00,South,185,9.0,14.0,-999,-99.99,,,-99.99,,2013-01-14 05:53:00,
2013-01-14 01:03:00,63.0,-99.9,-100.00,South,180,9.0,12.0,-999,-99.99,,,-99.99,,2013-01-14 06:03:00,
2013-01-14 01:12:00,63.0,-99.9,-100.00,South,180,10.0,14.0,-999,-99.99,,,-99.99,,2013-01-14 06:12:00,
2013-01-14 01:23:00,63.0,-99.9,-100.00,South,185,9.0,14.0,-999,-99.99,,,-99.99,,2013-01-14 06:23:00,
2013-01-14 01:33:00,63.0,-99.9,-100.00,South,190,8.0,15.0,-999,-99.99,,,-99.99,,2013-01-14 06:33:00,
2013-01-14 01:43:00,63.0,-99.9,-100.00,SSW,195,8.0,11.0,-999,-99.99,,,-99.99,,2013-01-14 06:43:00,
2013-01-14 01:53:00,63.0,-99.9,-100.00,SSW,195,9.0,12.0,-999,-99.99,,,-99.99,,2013-01-14 06:53:00,
2013-01-14 02:03:00,63.0,-99.9,-100.00,SSW,200,9.0,12.0,-999,-99.99,,,-99.99,,2013-01-14 07:03:00,
2013-01-14 02:12:00,63.0,-99.9,-100.00,South,190,9.0,13.0,-999,-99.99,,,-99.99,,2013-01-14 07:12:00,
2013-01-14 02:23:00,63.0,-99.9,-100.00,South,190,9.0,13.0,-999,-99.99,,,-99.99,,2013-01-14 07:23:00,
2013-01-14 02:33:00,62.0,-99.9,-100.00,SSW,195,7.0,11.0,-999,-99.99,,,-99.99,,2013-01-14 07:33:00,
2013-01-14 02:43:00,62.0,-99.9,-100.00,South,185,9.0,11.0,-999,-99.99,,,-99.99,,2013-01-14 07:43:00,
2013-01-14 02:53:00,62.0,-99.9,-100.00,South,185,8.0,11.0,-999,-99.99,,,-99.99,,2013-01-14 07:53:00,
2013-01-14 03:02:00,62.0,-99.9,-100.00,South,180,8.0,11.0,-999,-99.99,,,-99.99,,2013-01-14 08:02:00,
2013-01-14 03:12:00,63.0,-99.9,-100.00,South,170,11.0,14.0,-999,-99.99,,,-99.99,,2013-01-14 08:12:00,
2013-01-14 03:22:00,63.0,-99.9,-100.00,South,175,11.0,15.0,-999,-99.99,,,-99.99,,2013-01-14 08:22:00,
2013-01-14 03:33:00,63.0,-99.9,-100.00,South,180,11.0,15.0,-999,-99.99,,,-99.99,,2013-01-14 08:33:00,
2013-01-14 03:43:00,63.0,-99.9,-100.00,South,175,11.0,18.0,-999,-99.99,,,-99.99,,2013-01-14 08:43:00,
2013-01-14 03:53:00,63.0,-99.9,-100.00,South,170,12.0,16.0,-999,-99.99,,,-99.99,,2013-01-14 08:53:00,
2013-01-14 04:03:00,63.0,-99.9,-100.00,South,180,11.0,14.0,-999,-99.99,,,-99.99,,2013-01-14 09:03:00,
2013-01-14 04:12:00,63.0,-99.9,-100.00,South,180,10.0,14.0,-999,-99.99,,,-99.99,,2013-01-14 09:12:00,
2013-01-14 04:23:00,63.0,-99.9,-100.00,South,180,9.0,15.0,-999,-99.99,,,-99.99,,2013-01-14 09:23:00,
2013-01-14 04:34:00,63.0,-99.9,-100.00,South,185,8.0,12.0,-999,-99.99,,,-99.99,,2013-01-14 09:34:00,
2013-01-14 04:43:00,63.0,-99.9,-100.00,South,185,8.0,11.0,-999,-99.99,,,-99.99,,2013-01-14 09:43:00,
2013-01-14 04:53:00,63.0,-99.9,-100.00,South,185,9.0,12.0,-999,-99.99,,,-99.99,,2013-01-14 09:53:00,
2013-01-14 05:03:00,63.0,-99.9,-100.00,SSW,195,8.0,13.0,-999,-99.99,,,-99.99,,2013-01-14 10:03:00,
2013-01-14 05:12:00,63.0,-99.9,-100.00,South,185,7.0,13.0,-999,-99.99,,,-99.99,,2013-01-14 10:12:00,
2013-01-14 05:23:00,63.0,-99.9,-100.00,South,190,11.0,14.0,-999,-99.99,,,-99.99,,2013-01-14 10:23:00,
2013-01-14 05:33:00,63.0,-99.9,-100.00,SSW,200,9.0,14.0,-999,-99.99,,,-99.99,,2013-01-14 10:33:00,
2013-01-14 05:43:00,63.0,-99.9,-100.00,South,190,10.0,14.0,-999,-99.99,,,-99.99,,2013-01-14 10:43:00,
2013-01-14 05:53:00,62.0,-99.9,-100.00,SSW,205,8.0,14.0,-999,-99.99,,,-99.99,,2013-01-14 10:53:00,
2013-01-14 06:02:00,62.0,-99.9,-100.00,SSW,210,8.0,11.0,-999,-99.99,,,-99.99,,2013-01-14 11:02:00,
2013-01-14 06:12:00,62.0,-99.9,-100.00,SSW,200,9.0,11.0,-999,-99.99,,,-99.99,,2013-01-14 11:12:00,
2013-01-14 06:23:00,62.0,-99.9,-100.00,South,190,8.0,11.0,-999,-99.99,,,-99.99,,2013-01-14 11:23:00,
2013-01-14 06:33:00,62.0,-99.9,-100.00,South,185,8.0,11.0,-999,-99.99,,,-99.99,,2013-01-14 11:33:00,
2013-01-14 06:43:00,62.0,-99.9,-100.00,SSW,200,7.0,10.0,-999,-99.99,,,-99.99,,2013-01-14 11:43:00,
2013-01-14 06:53:00,62.0,-99.9,-100.00,South,190,7.0,10.0,-999,-99.99,,,-99.99,,2013-01-14 11:53:00,
2013-01-14 07:03:00,62.0,-99.9,-100.00,SSW,195,6.0,10.0,-999,-99.99,,,-99.99,,2013-01-14 12:03:00,
2013-01-14 07:12:00,62.0,-99.9,-100.00,South,190,6.0,9.0,-999,-99.99,,,-99.99,,2013-01-14 12:12:00,
2013-01-14 07:23:00,62.0,-99.9,-100.00,SSW,200,5.0,9.0,-999,-99.99,,,-99.99,,2013-01-14 12:23:00,
2013-01-14 07:33:00,61.0,-99.9,-100.00,SSW,205,7.0,11.0,-999,-99.99,,,-99.99,,2013-01-14 12:33:00,
2013-01-14 07:43:00,61.0,-99.9,-100.00,South,175,7.0,12.0,-999,-99.99,,,-99.99,,2013-01-14 12:43:00,
2013-01-14 07:53:00,61.0,-99.9,-100.00,South,180,6.0,10.0,-999,-99.99,,,-99.99,,2013-01-14 12:53:00,
2013-01-14 08:03:00,61.0,-99.9,-100.00,SSE,165,5.0,12.0,-999,-99.99,,,-99.99,,2013-01-14 13:03:00,
2013-01-14 08:13:00,62.0,-99.9,-100.00,SSW,200,4.0,8.0,-999,-99.99,,,-99.99,,2013-01-14 13:13:00,
2013-01-14 08:23:00,62.0,-99.9,-100.00,South,190,5.0,10.0,-999,-99.99,,,-99.99,,2013-01-14 13:23:00,
2013-01-14 08:34:00,62.0,-99.9,-100.00,SSW,195,5.0,9.0,-999,-99.99,,,-99.99,,2013-01-14 13:34:00,
2013-01-14 08:43:00,62.0,-99.9,-100.00,South,175,6.0,11.0,-999,-99.99,,,-99.99,,2013-01-14 13:43:00,
2013-01-14 08:53:00,63.0,-99.9,-100.00,SW,215,3.0,10.0,-999,-99.99,,,-99.99,,2013-01-14 13:53:00,
2013-01-14 09:03:00,63.0,-99.9,-100.00,SSW,205,4.0,9.0,-999,-99.99,,,-99.99,,2013-01-14 14:03:00,
2013-01-14 09:13:00,64.0,-99.9,-100.00,SSW,205,4.0,10.0,-999,-99.99,,,-99.99,,2013-01-14 14:13:00,
2013-01-14 09:23:00,64.0,-99.9,-100.00,SSW,205,7.0,10.0,-999,-99.99,,,-99.99,,2013-01-14 14:23:00,
2013-01-14 09:33:00,64.0,-99.9,-100.00,SSW,200,7.0,12.0,-999,-99.99,,,-99.99,,2013-01-14 14:33:00,
2013-01-14 09:43:00,65.0,-99.9,-100.00,SSW,210,9.0,16.0,-999,-99.99,,,-99.99,,2013-01-14 14:43:00,
2013-01-14 09:53:00,65.0,-99.9,-100.00,SW,230,7.0,17.0,-999,-99.99,,,-99.99,,2013-01-14 14:53:00,
2013-01-14 10:04:00,65.0,-99.9,-100.00,WSW,245,10.0,18.0,-999,-99.99,,,-99.99,,2013-01-14 15:04:00,
2013-01-14 10:13:00,66.0,-99.9,-100.00,SW,235,10.0,17.0,-999,-99.99,,,-99.99,,2013-01-14 15:13:00,
2013-01-14 10:24:00,66.0,-99.9,-100.00,WSW,240,10.0,18.0,-999,-99.99,,,-99.99,,2013-01-14 15:24:00,
2013-01-14 10:34:00,66.0,-99.9,-100.00,SW,230,14.0,21.0,-999,-99.99,,,-99.99,,2013-01-14 15:34:00,
2013-01-14 10:43:00,66.0,-99.9,-100.00,SSW,200,14.0,24.0,-999,-99.99,,,-99.99,,2013-01-14 15:43:00,
2013-01-14 10:54:00,66.0,-99.9,-100.00,SSW,210,9.0,22.0,-999,-99.99,,,-99.99,,2013-01-14 15:54:00,
2013-01-14 11:04:00,67.0,-99.9,-100.00,SW,215,16.0,20.0,-999,-99.99,,,-99.99,,2013-01-14 16:04:00,
2013-01-14 11:13:00,67.0,-99.9,-100.00,SW,215,18.0,26.0,-999,-99.99,,,-99.99,,2013-01-14 16:13:00,
2013-01-14 11:23:00,67.0,-99.9,-100.00,SW,225,14.0,22.0,-999,-99.99,,,-99.99,,2013-01-14 16:23:00,
2013-01-14 11:33:00,67.0,-99.9,-100.00,SW,230,11.0,24.0,-999,-99.99,,,-99.99,,2013-01-14 16:33:00,
2013-01-14 11:43:00,68.0,-99.9,-100.00,SSW,205,18.0,24.0,-999,-99.99,,,-99.99,,2013-01-14 16:43:00,
2013-01-14 11:54:00,69.0,-99.9,-100.00,SSW,200,11.0,24.0,-999,-99.99,,,-99.99,,2013-01-14 16:54:00,
2013-01-14 12:04:00,70.0,-99.9,-100.00,SW,220,12.0,24.0,-999,-99.99,,,-99.99,,2013-01-14 17:04:00,
2013-01-14 12:12:00,70.0,-99.9,-100.00,WSW,240,15.0,24.0,-999,-99.99,,,-99.99,,2013-01-14 17:12:00,
2013-01-14 12:23:00,71.0,-99.9,-100.00,SW,230,18.0,24.0,-999,-99.99,,,-99.99,,2013-01-14 17:23:00,
2013-01-14 12:34:00,70.0,-99.9,-100.00,SW,225,18.0,24.0,-999,-99.99,,,-99.99,,2013-01-14 17:34:00,
2013-01-14 12:44:00,70.0,-99.9,-100.00,SW,220,19.0,32.0,-999,-99.99,,,-99.99,,2013-01-14 17:44:00,
2013-01-14 12:54:00,71.0,-99.9,-100.00,SSW,210,19.0,28.0,-999,-99.99,,,-99.99,,2013-01-14 17:54:00,
2013-01-14 13:03:00,71.0,-99.9,-100.00,SW,235,15.0,27.0,-999,-99.99,,,-99.99,,2013-01-14 18:03:00,
2013-01-14 13:14:00,71.0,-99.9,-100.00,SW,225,19.0,28.0,-999,-99.99,,,-99.99,,2013-01-14 18:14:00,
2013-01-14 13:23:00,72.0,-99.9,-100.00,SSW,205,10.0,21.0,-999,-99.99,,,-99.99,,2013-01-14 18:23:00,
2013-01-14 13:33:00,72.0,-99.9,-100.00,SSW,205,14.0,25.0,-999,-99.99,,,-99.99,,2013-01-14 18:33:00,
2013-01-14 13:43:00,73.0,-99.9,-100.00,SW,230,19.0,26.0,-999,-99.99,,,-99.99,,2013-01-14 18:43:00,
2013-01-14 13:53:00,73.0,-99.9,-100.00,SW,225,13.0,25.0,-999,-99.99,,,-99.99,,2013-01-14 18:53:00,
2013-01-14 14:03:00,74.0,-99.9,-100.00,SW,215,10.0,20.0,-999,-99.99,,,-99.99,,2013-01-14 19:03:00,
2013-01-14 14:13:00,74.0,-99.9,-100.00,SSW,210,9.0,21.0,-999,-99.99,,,-99.99,,2013-01-14 19:13:00,
2013-01-14 14:22:00,74.0,-99.9,-100.00,SW,215,12.0,19.0,-999,-99.99,,,-99.99,,2013-01-14 19:22:00,
2013-01-14 14:33:00,74.0,-99.9,-100.00,SSW,205,14.0,23.0,-999,-99.99,,,-99.99,,2013-01-14 19:33:00,
2013-01-14 14:43:00,75.0,-99.9,-100.00,South,190,9.0,19.0,-999,-99.99,,,-99.99,,2013-01-14 19:43:00,
2013-01-14 14:53:00,74.0,-99.9,-100.00,SSW,200,14.0,24.0,-999,-99.99,,,-99.99,,2013-01-14 19:53:00,
2013-01-14 15:04:00,75.0,-99.9,-100.00,SW,220,14.0,22.0,-999,-99.99,,,-99.99,,2013-01-14 20:04:00,
2013-01-14 15:13:00,75.0,-99.9,-100.00,SSW,205,14.0,23.0,-999,-99.99,,,-99.99,,2013-01-14 20:13:00,
2013-01-14 15:23:00,75.0,-99.9,-100.00,WSW,240,13.0,21.0,-999,-99.99,,,-99.99,,2013-01-14 20:23:00,
2013-01-14 15:34:00,75.0,-99.9,-100.00,South,185,12.0,20.0,-999,-99.99,,,-99.99,,2013-01-14 20:34:00,
2013-01-14 15:43:00,75.0,-99.9,-100.00,SSW,195,9.0,19.0,-999,-99.99,,,-99.99,,2013-01-14 20:43:00,
2013-01-14 15:53:00,75.0,-99.9,-100.00,SSW,195,9.0,19.0,-999,-99.99,,,-99.99,,2013-01-14 20:53:00,
2013-01-14 16:03:00,75.0,-99.9,-100.00,South,175,9.0,19.0,-999,-99.99,,,-99.99,,2013-01-14 21:03:00,
2013-01-14 16:13:00,75.0,-99.9,-100.00,SSW,195,9.0,17.0,-999,-99.99,,,-99.99,,2013-01-14 21:13:00,
2013-01-14 16:23:00,75.0,-99.9,-100.00,SSW,200,4.0,19.0,-999,-99.99,,,-99.99,,2013-01-14 21:23:00,
2013-01-14 16:33:00,75.0,-99.9,-100.00,South,180,10.0,21.0,-999,-99.99,,,-99.99,,2013-01-14 21:33:00,
2013-01-14 16:43:00,74.0,-99.9,-100.00,South,190,13.0,23.0,-999,-99.99,,,-99.99,,2013-01-14 21:43:00,
2013-01-14 16:50:00,72.0,-99.9,-100.00,South,180,11.0,19.0,-999,-99.99,,,-99.99,,2013-01-14 21:50:00,
2013-01-14 16:54:00,74.0,-99.9,-100.00,SSW,195,15.0,23.0,-999,-99.99,,,-99.99,,2013-01-14 21:54:00,
2013-01-14 17:03:00,74.0,-99.9,-100.00,SSW,200,14.0,21.0,-999,-99.99,,,-99.99,,2013-01-14 22:03:00,
2013-01-14 17:13:00,73.0,-99.9,-100.00,SSW,205,10.0,21.0,-999,-99.99,,,-99.99,,2013-01-14 22:13:00,
2013-01-14 17:23:00,72.0,-99.9,-100.00,South,180,11.0,19.0,-999,-99.99,,,-99.99,,2013-01-14 22:23:00,
2013-01-14 17:33:00,72.0,-99.9,-100.00,South,180,11.0,19.0,-999,-99.99,,,-99.99,,2013-01-14 22:33:00,
2013-01-14 17:43:00,72.0,-99.9,-100.00,South,180,11.0,19.0,-999,-99.99,,,-99.99,,2013-01-14 22:43:00,
2013-01-14 21:10:00,-999.0,-99.9,-100.00,South,185,6.0,10.0,-999,-99.99,,,-99.99,,2013-01-15 02:10:00,
2013-01-14 22:03:00,-999.0,-99.9,-100.00,South,185,6.0,10.0,-999,-99.99,,,-99.99,,2013-01-15 03:03:00,
2013-01-14 22:22:00,64.0,-99.9,-100.00,South,180,8.0,11.0,-999,-99.99,,,-99.99,,2013-01-15 03:22:00,
2013-01-14 22:33:00,64.0,-99.9,-100.00,SSW,195,9.0,14.0,-999,-99.99,,,-99.99,,2013-01-15 03:33:00,
2013-01-14 22:43:00,64.0,-99.9,-100.00,South,185,9.0,12.0,-999,-99.99,,,-99.99,,2013-01-15 03:43:00,
2013-01-14 22:53:00,65.0,-99.9,-100.00,South,180,10.0,12.0,-999,-99.99,,,-99.99,,2013-01-15 03:53:00,
2013-01-14 23:03:00,64.0,-99.9,-100.00,South,175,10.0,14.0,-999,-99.99,,,-99.99,,2013-01-15 04:03:00,
2013-01-14 23:12:00,64.0,-99.9,-100.00,South,190,9.0,14.0,-999,-99.99,,,-99.99,,2013-01-15 04:12:00,
2013-01-14 23:22:00,64.0,-99.9,-100.00,South,185,8.0,13.0,-999,-99.99,,,-99.99,,2013-01-15 04:22:00,
2013-01-14 23:33:00,64.0,-99.9,-100.00,SSW,195,9.0,12.0,-999,-99.99,,,-99.99,,2013-01-15 04:33:00,
2013-01-14 23:43:00,64.0,-99.9,-100.00,SSW,195,9.0,14.0,-999,-99.99,,,-99.99,,2013-01-15 04:43:00,
2013-01-14 23:53:00,64.0,-99.9,-100.00,SSW,200,8.0,12.0,-999,-99.99,,,-99.99,,2013-01-15 04:53:00,